Regional Weather Roundup
Issued by NWS

Home | Current Version | Previous Version | Graphics & Text | Print | Product List | Glossary On
Versions: 1 2 3 4 5 6 7 8 9 10 11 12 13 14 15 16 17 18 19 20 21 22 23 24 25 26 27 28 29 30 31 32 33 34 35 36 37 38 39 40 41 42 43 44 45 46 47 48 49 50
000
ASUS43 KTOP 220008
RWRKS

WEATHER ROUNDUP FOR KANSAS
NATIONAL WEATHER SERVICE GOODLAND KS
700 PM CDT SAT APR 21 2018

NOTE:  "FAIR" INDICATES FEW OR NO CLOUDS BELOW 12,000 FEET WITH NO
SIGNIFICANT WEATHER AND/OR OBSTRUCTIONS TO VISIBILITY.

KSZ001>006-013>018-027>032-041>047-220100-
NORTHWEST KANSAS

CITY           SKY/WX    TMP DP  RH WIND       PRES   REMARKS
GOODLAND       CLOUDY    40  38  93 NE13      30.20R WCI  32
6HR MIN TEMP:  41; 6HR MAX TEMP:  43;

HAYS           LGT RAIN  45  43  93 NE8       30.19R
HILL CITY      CLOUDY    44  43  96 NE8       30.21R FOG
6HR MIN TEMP:  44; 6HR MAX TEMP:  47;

RUSSELL        CLOUDY    45  45 100 NE9       30.17R
6HR MIN TEMP:  44; 6HR MAX TEMP:  46; 6HR PCP:  0.02;

$$

KSZ061>065-074>080-084>089-220100-
SOUTHWEST KANSAS

CITY           SKY/WX    TMP DP  RH WIND       PRES   REMARKS
DODGE CITY     CLOUDY    46  42  86 N13       30.15R
6HR MIN TEMP:  45; 6HR MAX TEMP:  47; 6HR PCP: TRACE;

ELKHART        CLOUDY    47  43  84 NE15      30.17R
GARDEN CITY    CLOUDY    45  41  87 N12       30.18R
GREAT BEND     CLOUDY    45  43  93 NE9       30.17R
LIBERAL        CLOUDY    46  42  86 N13       30.17R
PRATT          CLOUDY    45  43  91 E9        30.14S
6HR MIN TEMP:  45; 6HR MAX TEMP:  46; 6HR PCP:  0.03;

$$

KSZ066>073-081>083-090>101-220100-
SOUTHEAST KANSAS

CITY           SKY/WX    TMP DP  RH WIND       PRES   REMARKS
CHANUTE        LGT RAIN  47  45  93 N14       30.13S FOG
6HR MIN TEMP:  47; 6HR MAX TEMP:  59; 6HR PCP:  0.15;

COFFEYVILLE    LGT RAIN  48  47  96 N10       30.10F
6HR MIN TEMP:  48; 6HR MAX TEMP:  56; 6HR PCP:  0.32;

HUTCHINSON     CLOUDY    45  43  93 NE9       30.15R
6HR MIN TEMP:  45; 6HR MAX TEMP:  48; 6HR PCP:  0.01;

MEDICINE LODGE   N/A     46  44  93 E9        30.13R
NEWTON         LGT RAIN  45  43  93 N12       30.14F
PARSONS        LGT RAIN  47  46  97 N12       30.12F
6HR MIN TEMP:  47; 6HR MAX TEMP:  57; 6HR PCP:  0.25;

WICHITA INTL   LGT RAIN  46  44  93 NE8       30.13R FOG
6HR MIN TEMP:  45; 6HR MAX TEMP:  48; 6HR PCP:  0.41;

WICHITA JABRA  RAIN      44  44 100 NE10      30.13S FOG
6HR MIN TEMP:  44; 6HR MAX TEMP:  45;

WICHITA MCCONL RAIN      45  45  99 NE12      30.13  FOG
WINFIELD       LGT RAIN  46  46 100 N9        30.11S
6HR MIN TEMP:  45; 6HR MAX TEMP:  46; 6HR PCP:  0.57;

$$

KSZ007>012-019>026-033>040-048>060-102>105-220100-
NORTHEAST KANSAS

CITY           SKY/WX    TMP DP  RH WIND       PRES   REMARKS
CONCORDIA      CLOUDY    45  41  86 NE5       30.19S
6HR MIN TEMP:  45; 6HR MAX TEMP:  46; 6HR PCP:  0.01;

EMPORIA        RAIN      45  43  93 NW7       30.14F FOG
6HR MIN TEMP:  45; 6HR MAX TEMP:  48; 6HR PCP:  0.19;

LAWRENCE       CLOUDY    54  44  69 NW15      30.11F
6HR MIN TEMP:  50; 6HR MAX TEMP:  61; 6HR PCP: TRACE;

MANHATTAN      LGT RAIN  48  45  89 NE3       30.18F FOG
6HR MIN TEMP:  47; 6HR MAX TEMP:  49; 6HR PCP:  0.03;

MARYSVILLE     CLOUDY    46  45  93 NE6       30.19F
OLATHE IND     CLOUDY    62  35  36 E9        30.10S
6HR MIN TEMP:  54; 6HR MAX TEMP:  66;

OLATHE EXE     CLOUDY    61  33  35 E10       30.09S
6HR MIN TEMP:  53; 6HR MAX TEMP:  64;

SALINA         RAIN      47  45  93 NE6       30.18S FOG
6HR MIN TEMP:  47; 6HR MAX TEMP:  49; 6HR PCP:  0.11;

TOPEKA BILLARD CLOUDY    51  44  77 NW7       30.13F
6HR MIN TEMP:  47; 6HR MAX TEMP:  53; 6HR PCP:  0.02;

TOPEKA FORBES  CLOUDY    51  44  77 NW10      30.13S
6HR MIN TEMP:  47; 6HR MAX TEMP:  53; 6HR PCP: TRACE;

$$




USA.gov is the U.S. government's official web portal to all federal, state and local government web resources and services.